Regional Weather Roundup
Issued by NWS

Home | Current Version | Previous Version | Graphics & Text | Print | Product List | Glossary On
Versions: 1 2 3 4 5 6 7 8 9 10 11 12 13 14 15 16 17 18 19 20 21 22 23 24 25 26 27 28 29 30 31 32 33 34 35 36 37 38 39 40 41 42 43 44 45 46 47 48 49 50
000
ASUS43 KDTX 211101
RWRMI
MICHIGAN HOURLY REGIONAL WEATHER ROUNDUP
NATIONAL WEATHER SERVICE DETROIT/PONTIAC MI
600 AM EST SUN DEC 21 2014

NOTE: "FAIR" INDICATES FEW OR NO CLOUDS BELOW 12,000 FEET WITH NO
SIGNIFICANT WEATHER AND/OR OBSTRUCTION TO VISIBILITY.

MIZ047>049-052>055-059>063-066>070-074>076-081>083-211200-
SOUTHEAST LOWER MICHIGAN

CITY           SKY/WX    TMP DP  RH WIND       PRES   REMARKS
ADRIAN         CLOUDY    26  23  88 CALM      30.30R
ALMA           CLOUDY    29  28  96 S3        30.27R FOG
ANN ARBOR      CLOUDY    26  24  92 CALM      30.29R
BAD AXE        MOCLDY    16  15  97 CALM      30.29R
CARO           CLOUDY    25  22  88 CALM      30.29R
DETROIT CITY   CLEAR     27  19  72 CALM      30.31R
DETROIT        CLOUDY    28  24  85 CALM      30.31R
FLINT          CLOUDY    28  24  85 S3        30.29R FOG
GROSSE ILE     CLOUDY    30  27  86 CALM      30.29S
HILLSDALE      CLOUDY    29  27  94 CALM      30.25S FOG
HOWELL         CLOUDY    27  24  89 S3        30.27R

CITY           SKY/WX    TMP DP  RH WIND       PRES   REMARKS
JACKSON        CLOUDY    28  24  85 S3        30.27S
LAMBERTVILLE   CLOUDY    23  21  93 CALM      30.31R FOG
LANSING        CLOUDY    29  24  82 S5        30.27S WCI  24
LAPEER         CLOUDY    23  21  93 CALM      30.30R
MASON          CLOUDY    28  24  87 S3        30.27R FOG
MONROE         MOCLDY    25  25 100 CALM      30.29R FOG
MT. CLEMENS    PTCLDY    24  24  99 CALM      30.29R
PONTIAC        CLOUDY    25  22  88 CALM      30.27S
PORT HOPE        N/A     22  18  85 SW6       30.28R WCI  14
PORT HURON     CLOUDY    23  23 100 CALM      30.31R
TRI CITIES     CLOUDY    29  24  82 S5        30.28S WCI  24
TROY           CLOUDY    29  24  79 CALM      30.31S
SAGINAW HB     CLOUDY    28  27  93 SE3       30.28S
$$
MIZ043>046-050>051-056>058-064>065-071>073-077>080-211200-
SOUTHWEST LOWER MICHIGAN

CITY           SKY/WX    TMP DP  RH WIND       PRES   REMARKS
BATTLE CREEK   CLOUDY    30  27  88 S6        30.26S FOG     WCI  24
BENTON HARBOR  CLOUDY    31  26  82 S7        30.25S WCI  24
BIG RAPIDS     CLOUDY    30  30 100 S3        30.21F FOG
COLDWATER      CLOUDY    30  28  93 MISG      30.27S FOG
FREMONT        MIX PCPN  31  29  95 SE3       30.22F
HOLLAND        CLOUDY    32  27  81 S8        30.25S WCI  25
GRAND RAPIDS   CLOUDY    30  26  85 S7        30.25S FOG     WCI  23
IONIA          CLOUDY    31  29  91 S5        30.25S FOG     WCI  26
KALAMAZOO      CLOUDY    30  27  88 S6        30.26S FOG     WCI  24
LUDINGTON      CLOUDY    31  28  89 SE5       30.21F FOG     WCI  26
MARSHALL       CLOUDY    28  26  92 CALM      30.26S FOG
MOUNT PLEASANT CLOUDY    28  28  96 CALM      30.25S FOG
MUSKEGON       CLOUDY    32  29  88 SE8       30.23F FOG     WCI  25
SOUTH HAVEN    CLOUDY    32  27  84 S5        30.25S WCI  27
$$
MIZ016>042-211200-
NORTHERN LOWER MICHIGAN

CITY           SKY/WX    TMP DP  RH WIND       PRES   REMARKS
ALPENA         CLOUDY    20  18  92 CALM      30.27R
BEAVER ISLAND  CLOUDY    31  27  83 CALM      30.20F
BELLAIRE       CLOUDY    27  25  91 CALM      30.23F
CADILLAC       CLOUDY    27  26  97 CALM      30.19S FOG
CHARLEVOIX     CLOUDY    27  23  84 SE6       30.24F WCI  21
FRANKFORT      CLOUDY    30  28  92 SE6       30.20F WCI  24
GAYLORD        CLOUDY    22  20  92 SE3       30.20S
GRAYLING       CLOUDY    22  21  96 CALM        N/A
HARBOR SPRINGS CLOUDY    25  21  85 NE6       30.22F WCI  18
HOUGHTON LAKE  CLOUDY    25  23  92 S5        30.22F FOG     WCI  19
MANISTEE       CLOUDY    28  27  93 SE3       30.21F
OSCODA         CLOUDY    19  18  96 CALM      30.27R
PELLSTON       CLOUDY    24  21  88 SE3       30.23F
ROGERS CITY    CLOUDY    19  19  96 CALM      30.26S
TRAVERSE CITY  CLOUDY    29  24  82 S3        30.21F
$$
MIZ007>008-015-211200-
EASTERN UPPER MICHIGAN

CITY           SKY/WX    TMP DP  RH WIND       PRES   REMARKS
KINROSS        CLOUDY    25  25 100 SE6       30.22S WCI  18
MACKINAC ISLAN CLOUDY    28  22  79 SE6       30.22F WCI  21
NEWBERRY       CLOUDY    26  25  94 SE10      30.18F WCI  16
S. S. MARIE    CLOUDY    25  20  81 CALM      30.27R
MUNISING         N/A     30  24  78 SW3       30.16F
$$
MIZ004>006-011>014-085-211200-
CENTRAL UPPER MICHIGAN

CITY           SKY/WX    TMP DP  RH WIND       PRES   REMARKS
MANISTIQUE     CLOUDY    28  28  99 E3        30.18F
ESCANABA       CLOUDY    28  21  74 CALM      30.16F
MENOMINEE      CLOUDY    28  27  93 S5        30.15F WCI  23
SAWYER-GWINN   CLOUDY    26  23  91 S8        30.10F FOG     WCI  17
$$
MIZ001>003-009>011-084-211200-
WESTERN UPPER MICHIGAN

CITY           SKY/WX    TMP DP  RH WIND       PRES   REMARKS
IRON MOUNTAIN  CLOUDY    26  24  92 SE6       30.10S FOG     WCI  19
HOUGHTON       MOCLDY    27  23  85 S8        30.05F WCI  19
COPPER HARBOR    N/A     31  26  82 CALM      30.08F
IRONWOOD       CLOUDY    30  27  86 SW10G16   29.98F WCI  21
$$

ABBREVIATIONS USED IN REMARKS
   TC - TEMPERATURE IN CELSIUS
  WCI - WIND CHILL INDEX
   HX - HEAT INDEX
  VSB - VISIBILITY




USA.gov is the U.S. government's official web portal to all federal, state and local government web resources and services.